Simultaneous Nadir Overpasses (SNOs) Predictions

Prediction of SNOs between LANDSAT-8 and METOP-B Satellite Orbit:

Table of predicted SNOs for the next 14.0 days since TLE Epoch: 9/11/2021
Index Date (LANDSAT-8) Time (LANDSAT-8) Lat,Lon (LANDSAT-8) SZA (LANDSAT-8 ) Date (METOP-B) Time (METOP-B) Lat,Lon (METOP-B) SZA (METOP-B ) Distance(km) Time Diff (sec)
1 09/12/2021 20:18:03 -81.11, 95.38 100.58 09/12/2021 20:17:28 -81.11, 95.36 100.59 0.44 35
2 09/12/2021 21:07:28 81.14, -96.52 79.51 09/12/2021 21:08:07 81.14, -96.61 79.52 1.61 39
3 09/15/2021 15:52:19 -81.11, 161.73 99.49 09/15/2021 15:51:51 -81.11, 161.54 99.52 3.21 28
4 09/15/2021 16:41:44 81.13, -30.20 80.59 09/15/2021 16:42:29 81.14, -30.10 80.63 1.94 45
5 09/18/2021 11:26:33 -81.12,-131.61 98.35 09/18/2021 11:26:11 -81.12,-131.55 98.35 1.12 22
6 09/18/2021 12:15:58 81.15, 36.44 81.73 09/18/2021 12:16:50 81.14, 36.40 81.75 0.85 52
7 09/21/2021 07:00:48 -81.13, -64.99 97.21 09/21/2021 07:00:33 -81.13, -65.02 97.22 0.92 15
8 09/21/2021 07:50:14 81.13, 102.68 82.82 09/21/2021 07:51:13 81.13, 102.50 82.82 3.06 59
9 09/24/2021 02:35:04 -81.12, 1.23 96.12 09/24/2021 02:34:56 -81.12, 1.11 96.14 2.10 8



Historial Predications of SNOs between LANDSAT-8 and METOP-B
